Location: Unspecified
(0.0000°N, 0.0000°E)
Time: 13:01:38
(UTC+00:00)

In-Cosmos 22 - Visible Passes

Search period start: 26 September 2022 00:00
Search period end: 06 October 2022 00:00
Orbit: 784 x 876 km, 81.2° (Epoch: 25 September)

Date Brightness Start Highest point End Pass type
(mag) Time Alt. Az. Time Alt. Az. Time Alt. Az.
26 Sep 5.0 19:28:42 10° NNW 19:33:45 48° W 19:38:54 10° S visible
27 Sep 4.4 19:10:32 10° NNW 19:15:45 65° W 19:21:04 10° S visible
28 Sep 4.1 18:52:28 10° N 18:57:45 86° W 19:03:08 10° S visible
29 Sep 4.0 18:34:29 10° N 18:39:45 72° E 18:45:07 10° S visible
30 Sep 4.2 18:16:37 10° N 18:21:45 53° E 18:27:00 10° SSE visible
01 Oct 7.9 05:19:49 10° ESE 05:21:57 12° E 05:24:04 10° ENE visible
01 Oct 7.4 19:44:32 10° W 19:46:00 11° W 19:47:27 10° WSW visible
02 Oct 7.1 19:24:58 10° WNW 19:27:59 15° W 19:31:02 10° SW visible
03 Oct 6.8 19:06:06 10° NW 19:09:58 20° W 19:13:54 10° SW visible
04 Oct 6.4 18:47:31 10° NW 18:51:57 27° W 18:56:29 10° SSW visible
05 Oct 5.9 18:29:07 10° NNW 18:33:57 36° W 18:38:54 10° SSW visible
